F5ZQC-13 Weather Reports


time (UTC)temp
C
wind
direction
speed
KPH
gust
KPH
rain 1hr
cm
rain 24hr
cm
rain mn
cm
humidity
%
barometer
mb
20260510055123 17 292 0.0 1.6 0.00 0.00 0.00 49 1006.8
20260510054517 16 292 0.0 0.0 0.00 0.00 0.00 49 1006.9
20260510054209 16 247 0.0 4.8 0.00 0.00 0.00 47 1007.0
20260510054007 16 45 3.2 202.8 0.00 0.00 0.00 48 1006.9
20260510053703 16 33 202.8 202.8 0.00 0.00 0.00 49 1006.7
20260510053615 16 45 4.8 4.8 0.00 0.00 0.00 50 1006.9
20260510053417 15 45 4.8 4.8 0.00 0.00 0.00 51 1006.8
20260510053211 15 236 3.2 3.2 0.00 0.00 0.00 52 1006.8
20260510053008 15 326 0.0 0.0 0.00 0.00 0.00 52 1006.9
20260510052102 14 225 202.8 202.8 0.00 0.00 0.00 50 1006.9
20260510052040 14 225 1.6 8.0 0.00 0.00 0.00 50 1006.8
20260510051838 14 247 6.4 8.0 0.00 0.00 0.00 51 1006.9
20260510051231 14 0 11.3 12.9 0.00 0.00 0.00 51 1006.8
20260510051034 14 0 11.3 12.9 0.00 0.00 0.00 51 1007.0
20260510050625 13 0 8.0 11.3 0.00 0.00 0.00 51 1006.9
20260510050422 13 0 9.7 9.7 0.00 0.00 0.00 52 1007.0
20260510045817 13 0 4.8 197.9 0.00 0.00 0.00 52 1006.6
20260510045614 13 348 0.0 197.9 0.00 0.00 0.00 52 1006.9
20260510045511 13 337 197.9 197.9 0.00 0.00 0.00 51 1006.7
20260510044731 13 247 11.3 12.9 0.00 0.00 0.00 52 1006.8
20260510044528 13 0 12.9 12.9 0.00 0.00 0.00 52 1006.9
20260510044325 13 0 8.0 11.3 0.00 0.00 0.00 52 1007.0
20260510044123 13 0 9.7 9.7 0.00 0.00 0.00 53 1007.1
20260510043318 13 292 8.0 9.7 0.00 0.00 0.00 53 1007.0
20260510042914 13 247 9.7 11.3 0.00 0.00 0.00 54 1006.8
20260510042710 13 247 8.0 11.3 0.00 0.00 0.00 54 1007.2
20260510042002 13 348 202.8 202.8 0.00 0.00 0.00 54 1006.9
20260510041658 13 0 8.0 11.3 0.00 0.00 0.00 55 1007.0
20260510041456 13 292 11.3 11.3 0.00 0.00 0.00 54 1006.8
20260510041051 13 45 9.7 16.1 0.00 0.00 0.00 55 1006.8
20260510040850 13 348 12.9 16.1 0.00 0.00 0.00 55 1007.0
20260510040647 13 0 12.9 12.9 0.00 0.00 0.00 54 1006.9
20260510040411 14 247 8.0 11.3 0.00 0.00 0.00 56 1007.1
20260510040243 14 247 9.7 11.3 0.00 0.00 0.00 55 1007.3
20260510035833 14 247 8.0 11.3 0.00 0.00 0.00 56 1007.1
20260510035631 14 337 11.3 11.3 0.00 0.00 0.00 56 1007.2
20260510035227 14 247 9.7 11.3 0.00 0.00 0.00 56 1006.8
20260510035027 14 0 11.3 11.3 0.00 0.00 0.00 56 1007.0
20260510035025 14 0 9.7 9.7 0.00 0.00 0.00 51 1007.1
20260510034953 14 0 11.3 11.3 0.00 0.00 0.00 56 1007.0
20260510034800 14 247 8.0 11.3 0.00 0.00 0.00 55 1007.0
20260510034620 14 247 8.0 11.3 0.00 0.00 0.00 55 1006.9
20260510034548 14 247 8.0 11.3 0.00 0.00 0.00 55 1006.9
20260510034144 14 247 9.7 9.7 0.00 0.00 0.00 57 1006.6
20260510033952 14 45 8.0 9.7 0.00 0.00 0.00 55 1007.1
20260510033737 14 247 6.4 9.7 0.00 0.00 0.00 57 1006.7
20260510032736 14 45 9.7 9.7 0.00 0.00 0.00 59 1007.2
20260510032534 14 247 6.4 9.7 0.00 0.00 0.00 57 1007.3
20260510032331 14 45 4.8 9.7 0.00 0.00 0.00 55 1007.2
20260510032139 14 236 8.0 11.3 0.00 0.00 0.00 55 1007.4
20260510031927 14 247 4.8 11.3 0.00 0.00 0.00 57 1007.4
20260510031725 14 45 4.8 8.0 0.00 0.00 0.00 57 1007.4
20260510031523 14 45 4.8 4.8 0.00 0.00 0.00 57 1007.1
20260510031449 14 247 8.0 9.7 0.00 0.00 0.00 58 1007.0
20260510031353 14 247 8.0 9.7 0.00 0.00 0.00 58 1007.0
20260510030948 14 22 6.4 11.3 0.00 0.00 0.00 55 1007.5
20260510030540 14 348 6.4 8.0 0.00 0.00 0.00 56 1007.0
20260510030339 14 0 8.0 9.7 0.00 0.00 0.00 57 1007.4
20260510030137 14 0 8.0 9.7 0.00 0.00 0.00 58 1007.5
20260510025732 14 0 8.0 9.7 0.00 0.00 0.00 58 1007.5
20260510025130 14 247 9.7 207.6 0.00 0.00 0.00 55 1007.5
20260510025023 14 0 207.6 207.6 0.00 0.00 0.00 57 1007.4
20260510024548 14 45 6.4 11.3 0.00 0.00 0.00 57 1007.0
20260510024346 14 45 6.4 9.7 0.00 0.00 0.00 58 1007.5
20260510024144 14 45 4.8 8.0 0.00 0.00 0.00 58 1007.6
20260510023739 14 45 6.4 207.6 0.00 0.00 0.00 56 1007.6
20260510023637 14 45 207.6 207.6 0.00 0.00 0.00 53 1007.5
20260510023529 14 45 209.2 209.2 0.00 0.00 0.00 57 1007.2
20260510023142 14 45 4.8 8.0 0.00 0.00 0.00 58 1007.6
20260510022735 14 337 4.8 8.0 0.00 0.00 0.00 58 1007.5
20260510022533 14 45 6.4 8.0 0.00 0.00 0.00 58 1007.5
20260510022332 14 45 8.0 8.0 0.00 0.00 0.00 55 1007.4
20260510022110 14 11 8.0 11.3 0.00 0.00 0.00 59 1007.4
20260510021702 14 45 6.4 11.3 0.00 0.00 0.00 58 1007.5
20260510021502 15 45 11.3 11.3 0.00 0.00 0.00 57 1007.0
20260510021300 15 45 9.7 9.7 0.00 0.00 0.00 55 1007.5
20260510021109 15 45 9.7 11.3 0.00 0.00 0.00 59 1007.4
20260510020900 15 45 9.7 14.5 0.00 0.00 0.00 57 1007.5
20260510020658 15 45 9.7 14.5 0.00 0.00 0.00 58 1007.5
20260510020454 15 45 9.7 14.5 0.00 0.00 0.00 59 1007.5
20260510020051 15 45 8.0 16.1 0.00 0.00 0.00 56 1007.3
20260510015849 15 45 12.9 209.2 0.00 0.00 0.00 56 1007.4
20260510015648 15 22 6.4 209.2 0.00 0.00 0.00 59 1007.2
20260510015543 15 45 209.2 209.2 0.00 0.00 0.00 59 1007.6
20260510014835 15 22 9.7 209.2 0.00 0.00 0.00 60 1007.8
20260510014633 15 45 9.7 209.2 0.00 0.00 0.00 58 1007.6
20260510014530 15 45 209.2 209.2 0.00 0.00 0.00 59 1007.6
20260510014408 15 45 14.5 16.1 0.00 0.00 0.00 65 1007.5
20260510014002 15 247 14.5 14.5 0.00 0.00 0.00 58 1007.6
20260510013800 15 45 12.9 17.7 0.00 0.00 0.00 60 1007.3
20260510013559 15 45 11.3 215.7 0.00 0.00 0.00 59 1007.8
20260510012959 15 45 12.9 20.9 0.00 0.00 0.00 59 1007.5
20260510012756 15 45 11.3 20.9 0.00 0.00 0.00 57 1007.7
20260510012555 15 45 11.3 16.1 0.00 0.00 0.00 57 1007.7
20260510012150 15 45 8.0 17.7 0.00 0.00 0.00 60 1007.2
20260510011947 15 45 12.9 12.9 0.00 0.00 0.00 58 1007.5
20260510011658 15 45 14.5 16.1 0.00 0.00 0.00 55 1007.4
20260510011454 15 45 9.7 14.5 0.00 0.00 0.00 59 1007.4
20260510011050 15 45 11.3 14.5 0.00 0.00 0.00 59 1007.5
20260510010720 15 45 11.3 11.3 0.00 0.00 0.00 60 1007.9
20260510010647 15 45 11.3 11.3 0.00 0.00 0.00 60 1007.9
20260510010409 15 45 11.3 14.5 0.00 0.00 0.00 54 1007.8
20260510010208 15 45 14.5 14.5 0.00 0.00 0.00 58 1008.0
20260510005804 15 45 9.7 209.2 0.00 0.00 0.00 57 1008.0
20260510005602 15 45 9.7 209.2 0.00 0.00 0.00 58 1007.1
20260510005001 16 45 8.0 11.3 0.00 0.00 0.00 53 1008.0
20260510004834 16 45 6.4 207.6 0.00 0.00 0.00 57 1008.0
20260510004801 16 45 6.4 207.6 0.00 0.00 0.00 57 1008.0
20260510004632 16 45 8.0 207.6 0.00 0.00 0.00 54 1008.0
20260510004558 16 45 8.0 207.6 0.00 0.00 0.00 54 1008.0
20260510004253 16 22 6.4 9.7 0.00 0.00 0.00 57 1008.1
20260510004216 16 22 6.4 9.7 0.00 0.00 0.00 57 1008.1
20260510004057 16 45 8.0 8.0 0.00 0.00 0.00 56 1008.4
20260510004013 16 45 8.0 8.0 0.00 0.00 0.00 56 1008.4
20260510003810 16 45 8.0 9.7 0.00 0.00 0.00 58 1008.3
20260510003609 16 45 8.0 206.0 0.00 0.00 0.00 56 1008.2
20260510003342 16 45 206.0 206.0 0.00 0.00 0.00 55 1008.3
20260510003333 16 45 8.0 9.7 0.00 0.00 0.00 53 1008.4
20260510003305 16 45 206.0 206.0 0.00 0.00 0.00 55 1008.3
20260510003220 16 45 8.0 9.7 0.00 0.00 0.00 53 1008.4
20260510003016 16 45 8.0 9.7 0.00 0.00 0.00 57 1008.3
20260510002813 16 236 8.0 8.0 0.00 0.00 0.00 56 1008.5
20260510002613 16 45 6.4 6.4 0.00 0.00 0.00 57 1008.4
20260510002209 16 45 3.2 202.8 0.00 0.00 0.00 56 1008.6
20260510002105 16 45 202.8 202.8 0.00 0.00 0.00 54 1008.2
20260510002027 16 45 6.4 6.4 0.00 0.00 0.00 56 1008.3
20260510001951 16 45 6.4 6.4 0.00 0.00 0.00 56 1008.3
20260510001618 16 45 3.2 4.8 0.00 0.00 0.00 54 1008.6
20260510001428 16 45 4.8 4.8 0.00 0.00 0.00 54 1008.4
20260510001215 16 45 3.2 3.2 0.00 0.00 0.00 55 1008.7
20260510001013 16 45 1.6 1.6 0.00 0.00 0.00 55 1008.7
20260510000940 16 45 0.0 1.6 0.00 0.00 0.00 55 1008.5
20260510000737 16 337 0.0 1.6 0.00 0.00 0.00 55 1008.6
20260510000535 16 225 0.0 199.6 0.00 0.00 0.00 54 1008.8
20260510000222 16 337 199.6 199.6 0.00 0.00 0.00 54 1008.7
20260509235829 16 292 3.2 4.8 0.00 0.00 0.00 54 1008.7
20260509235752 16 292 3.2 4.8 0.00 0.00 0.00 54 1008.7
20260509235550 16 315 4.8 199.6 0.00 0.00 0.00 55 1008.6
20260509235350 16 315 1.6 199.6 0.00 0.00 0.00 55 1008.7
20260509235317 16 292 199.6 199.6 0.00 0.00 0.00 55 1008.6
20260509235246 16 292 199.6 199.6 0.00 0.00 0.00 55 1008.6
20260509235206 16 315 1.6 4.8 0.00 0.00 0.00 55 1008.6
20260509234955 16 315 3.2 4.8 0.00 0.00 0.00 57 1008.5
20260509234754 16 315 3.2 202.8 0.00 0.00 0.00 56 1008.7
20260509234550 16 292 4.8 202.8 0.00 0.00 0.00 54 1008.8
20260509234449 16 270 202.8 202.8 0.00 0.00 0.00 54 1008.7
20260509234315 16 270 4.8 9.7 0.00 0.00 0.00 55 1008.8
20260509233913 16 270 3.2 4.8 0.00 0.00 0.00 55 1008.5
20260509233505 16 315 0.0 0.0 0.00 0.00 0.00 56 1008.2
20260509232724 16 270 4.8 204.4 0.00 0.00 0.00 56 1008.5
20260509232520 16 315 4.8 204.4 0.00 0.00 0.00 56 1008.7
20260509232355 16 292 4.8 4.8 0.00 0.00 0.00 55 1008.8
20260509231951 16 315 1.6 9.7 0.00 0.00 0.00 55 1008.6
20260509231754 16 315 4.8 210.8 0.00 0.00 0.00 56 1008.2
20260509231616 16 315 8.0 210.8 0.00 0.00 0.00 56 1008.2
20260509231545 16 315 8.0 210.8 0.00 0.00 0.00 56 1008.2
20260509231250 16 270 4.8 12.9 0.00 0.00 0.00 56 1008.6
20260509230916 16 315 3.2 6.4 0.00 0.00 0.00 55 1008.6
20260509230845 16 315 3.2 6.4 0.00 0.00 0.00 55 1008.6
20260509230644 16 292 6.4 6.4 0.00 0.00 0.00 55 1008.5
20260509230411 16 270 1.6 4.8 0.00 0.00 0.05 55 1008.5
20260509230206 16 292 4.8 4.8 0.00 0.00 0.05 54 1008.5
20260509230006 16 270 1.6 8.0 0.00 0.00 0.05 53 1008.6
20260509225256 16 292 3.2 6.4 0.00 0.00 0.00 52 1008.7
20260509225052 16 270 1.6 6.4 0.00 0.00 0.00 51 1008.7
20260509224649 16 315 1.6 3.2 0.00 0.00 0.00 56 1008.3
20260509224348 16 270 1.6 4.8 0.00 0.00 0.00 51 1008.8
20260509224141 16 292 3.2 4.8 0.00 0.00 0.00 52 1008.8
20260509223938 16 315 1.6 4.8 0.00 0.00 0.00 51 1008.9
20260509223736 16 315 4.8 4.8 0.00 0.00 0.00 52 1008.9
20260509223613 16 315 1.6 204.4 0.00 0.00 0.00 52 1008.9
20260509223533 16 315 1.6 204.4 0.00 0.00 0.00 52 1008.9
20260509223332 16 270 1.6 204.4 0.00 0.00 0.00 52 1008.9
20260509223230 16 315 204.4 204.4 0.00 0.00 0.00 52 1009.0
20260509223201 16 292 4.8 6.4 0.00 0.00 0.00 52 1008.9
20260509222956 16 315 1.6 6.4 0.00 0.00 0.00 52 1008.9
20260509222755 16 270 3.2 4.8 0.00 0.00 0.00 52 1008.8
20260509222624 16 315 3.2 4.8 0.00 0.00 0.00 52 1008.7
20260509222553 16 315 3.2 4.8 0.00 0.00 0.00 52 1008.7
20260509222351 16 292 4.8 202.8 0.00 0.00 0.00 51 1008.8
20260509222147 16 315 3.2 202.8 0.00 0.00 0.00 52 1008.8
20260509221948 16 270 4.8 8.0 0.00 0.00 0.00 52 1008.8
20260509221746 16 315 6.4 11.3 0.00 0.00 0.00 51 1008.7
20260509221543 16 270 3.2 11.3 0.00 0.00 0.00 54 1008.7
20260509221345 16 315 11.3 11.3 0.00 0.00 0.00 51 1008.5
20260509221138 16 303 4.8 202.8 0.00 0.00 0.00 52 1008.7
20260509220747 16 292 3.2 12.9 0.00 0.00 0.00 51 1008.4
20260509220709 16 292 3.2 12.9 0.00 0.00 0.00 51 1008.4
20260509215901 16 270 3.2 8.0 0.00 0.00 0.00 53 1008.5
20260509215659 16 315 3.2 4.8 0.00 0.00 0.00 52 1008.0
20260509215456 16 270 3.2 3.2 0.00 0.00 0.00 52 1008.3
20260509215351 16 315 9.7 9.7 0.00 0.00 0.00 52 1008.2
20260509215125 16 348 4.8 4.8 0.00 0.00 0.00 52 1008.2
20260509214946 16 348 4.8 4.8 0.00 0.00 0.00 52 1008.2
20260509214543 16 0 0.0 1.6 0.00 0.00 0.00 51 1008.0
20260509214001 16 0 3.2 3.2 0.00 0.00 0.00 52 1008.1
20260509213556 16 337 0.0 0.0 0.00 0.00 0.00 52 1008.1
20260509213059 17 315 1.6 1.6 0.00 0.00 0.00 51 1008.0
20260509212949 17 315 1.6 1.6 0.00 0.00 0.00 51 1008.0
20260509212739 17 315 0.0 1.6 0.00 0.00 0.00 50 1008.0
20260509212537 17 315 0.0 1.6 0.00 0.00 0.00 51 1007.9
20260509212337 17 270 0.0 3.2 0.00 0.00 0.00 50 1007.9
20260509211930 17 315 3.2 3.2 0.00 0.00 0.00 50 1007.7
20260509211901 17 270 1.6 6.4 0.00 0.00 0.00 51 1007.6
20260509211721 17 270 4.8 6.4 0.00 0.00 0.00 51 1007.7
20260509211645 17 270 4.8 6.4 0.00 0.00 0.00 51 1007.7
20260509211443 17 270 4.8 4.8 0.00 0.00 0.00 50 1007.7
20260509211246 17 303 4.8 202.8 0.00 0.00 0.00 50 1007.6
20260509211039 17 315 4.8 202.8 0.00 0.00 0.00 50 1007.7
20260509210937 17 315 202.8 202.8 0.00 0.00 0.00 51 1007.7
20260509210537 17 270 1.6 1.6 0.00 0.00 0.00 50 1007.5
20260509210335 17 315 1.6 3.2 0.00 0.00 0.00 50 1007.7
20260509210133 17 292 1.6 3.2 0.00 0.00 0.00 50 1007.7
20260509205930 17 270 3.2 3.2 0.00 0.00 0.00 51 1007.7
20260509205644 17 292 3.2 3.2 0.00 0.00 0.00 49 1007.7
20260509205442 17 270 3.2 4.8 0.00 0.00 0.00 50 1007.6
20260509205039 17 315 3.2 202.8 0.00 0.00 0.00 49 1007.7
20260509204541 17 315 4.8 8.0 0.00 0.00 0.00 50 1007.7
20260509204435 17 315 4.8 8.0 0.00 0.00 0.00 50 1007.7
20260509204241 -17 292 8.0 0.0 0.00 0.00 0.00
20260509204233 17 292 8.0 8.0 0.00 0.00 0.00 50 1007.7
20260509204033 17 0 4.8 4.8 0.00 0.00 0.00 47 1007.5
20260509203934 17 348 3.2 4.8 0.00 0.00 0.00 50 1007.7
20260509203736 17 337 1.6 3.2 0.00 0.00 0.00 50 1007.7
20260509203733 17 337 1.6 3.2 0.00 0.00 0.00 50 1007.7
20260509203530 17 337 1.6 3.2 0.00 0.00 0.00 50 1007.7
20260509203328 17 0 1.6 4.8 0.00 0.00 0.00 50 1007.7
20260509203131 17 315 4.8 4.8 0.00 0.00 0.00 50 1007.6
20260509202923 17 0 3.2 3.2 0.00 0.00 0.00 50 1007.5
20260509202720 17 0 1.6 1.6 0.00 0.00 0.00 49 1007.5
20260509202518 17 303 0.0 3.2 0.00 0.00 0.00 49 1007.6
20260509202114 17 315 3.2 3.2 0.00 0.00 0.00 48 1007.5
20260509202038 17 315 3.2 3.2 0.00 0.00 0.00 49 1007.5
20260509201836 17 315 1.6 1.6 0.00 0.00 0.00 48 1007.4
20260509201635 17 270 0.0 0.0 0.00 0.00 0.00 50 1007.4
20260509201230 17 270 0.0 0.0 0.00 0.00 0.00 49 1007.5
20260509200746 17 315 3.2 4.8 0.00 0.00 0.00 48 1007.3
20260509200544 17 315 3.2 204.4 0.00 0.00 0.00 48 1007.4
20260509200342 17 315 6.4 204.4 0.00 0.00 0.00 48 1007.4
20260509200208 17 315 4.8 4.8 0.00 0.00 0.00 49 1007.3
20260509200006 17 315 4.8 4.8 0.00 0.00 0.00 48 1007.3
20260509195804 17 303 4.8 6.4 0.00 0.00 0.00 48 1007.4
20260509195359 17 292 6.4 204.4 0.00 0.00 0.00 47 1007.2
20260509195257 17 337 204.4 204.4 0.00 0.00 0.00 47 1007.2
20260509195237 17 0 4.8 4.8 0.00 0.00 0.00 47 1007.2
20260509195034 17 337 4.8 4.8 0.00 0.00 0.00 47 1007.2
20260509194226 17 270 1.6 1.6 0.00 0.00 0.00 47 1007.1
20260509194158 17 270 1.6 3.2 0.00 0.00 0.00 47 1007.1
20260509193955 18 270 1.6 3.2 0.00 0.00 0.00 46 1007.1
20260509193757 18 270 1.6 3.2 0.00 0.00 0.00 46 1007.1
20260509193551 18 270 1.6 202.8 0.00 0.00 0.00 46 1007.1
20260509193251 18 270 202.8 202.8 0.00 0.00 0.00 47 1006.9
20260509193145 18 270 1.6 4.8 0.00 0.00 0.00 46 1007.0
20260509192942 18 270 4.8 4.8 0.00 0.00 0.00 45 1007.0
20260509192740 18 270 1.6 199.6 0.00 0.00 0.00 46 1007.0
20260509192538 18 270 1.6 199.6 0.00 0.00 0.00 46 1007.0
20260509192109 18 292 4.8 4.8 0.00 0.00 0.00 46 1006.8
20260509191215 18 315 3.2 3.2 0.00 0.00 0.00 45 1006.8
20260509190810 18 292 0.0 0.0 0.00 0.00 0.00 45 1006.7
20260509190001 18 292 0.0 0.0 0.00 0.00 0.00 45 1006.6
20260509185709 18 292 0.0 1.6 0.00 0.00 0.00 44 1006.6
20260509185203 18 303 202.8 202.8 0.00 0.00 0.00 44 1006.5
20260509184949 18 315 1.6 4.8 0.00 0.00 0.00 45 1006.5
20260509184554 18 292 1.6 202.8 0.00 0.00 0.00 44 1006.3
20260509184443 18 303 202.8 202.8 0.00 0.00 0.00 45 1006.6
20260509184357 18 315 3.2 3.2 0.00 0.00 0.00 44 1006.5
20260509183745 18 315 1.6 201.2 0.00 0.00 0.00 44 1006.4
20260509183531 18 315 0.0 1.6 0.00 0.00 0.00 45 1006.4
20260509182925 18 315 3.2 197.9 0.00 0.00 0.00 45 1006.4
20260509182734 18 303 0.0 1.6 0.00 0.00 0.00 44 1006.3
20260509182532 18 337 0.0 1.6 0.00 0.00 0.00 45 1006.2
20260509182330 18 337 1.6 3.2 0.00 0.00 0.00 44 1006.3
20260509182128 18 337 1.6 3.2 0.00 0.00 0.00 44 1006.3
20260509181723 18 337 0.0 3.2 0.00 0.00 0.00 44 1006.3
20260509181522 18 337 3.2 201.2 0.00 0.00 0.00 44 1006.2
20260509181319 18 337 4.8 201.2 0.00 0.00 0.00 44 1006.3
20260509181005 18 337 1.6 6.4 0.00 0.00 0.00 44 1006.2
20260509180803 18 315 1.6 6.4 0.00 0.00 0.00 44 1006.3
20260509180600 18 326 6.4 6.4 0.00 0.00 0.00 44 1006.3
20260509174751 19 315 4.8 209.2 0.00 0.00 0.00 42 1006.4
20260509174455 19 315 4.8 209.2 0.00 0.00 0.00 42 1006.4
20260509172058 20 337 1.6 14.5 0.00 0.00 0.00 41 1006.5
20260509171449 20 303 8.0 12.9 0.00 0.00 0.00 41 1006.7
20260509171251 20 315 9.7 12.9 0.00 0.00 0.00 41 1006.7
20260509164110 21 315 1.6 201.2 0.00 0.00 0.00 43 1006.6
20260509163957 21 315 201.2 201.2 0.00 0.00 0.00 43 1006.7
20260509161604 20 315 6.4 8.0 0.00 0.00 0.00 44 1006.6
20260509155311 18 303 14.5 14.5 0.00 0.00 0.00 45 1006.8
20260509154527 18 315 12.9 17.7 0.00 0.00 0.00 45 1006.8
20260509153922 18 315 14.5 14.5 0.00 0.00 0.00 44 1006.7
20260509152703 19 315 11.3 17.7 0.00 0.00 0.00 43 1006.7
20260509152255 19 315 11.3 14.5 0.00 0.00 0.00 43 1006.8
20260509151451 19 315 9.7 19.3 0.00 0.00 0.00 42 1006.8
20260509151042 19 315 12.9 20.9 0.00 0.00 0.00 42 1006.9
20260509144638 20 315 12.9 14.5 0.00 0.00 0.00 42 1007.0
20260509142008 20 315 11.3 17.7 0.00 0.00 0.00 41 1007.4
20260509141807 20 315 9.7 20.9 0.00 0.00 0.00 41 1007.5
20260509140954 20 315 9.7 16.1 0.00 0.00 0.00 41 1007.6
20260509140548 20 315 16.1 17.7 0.00 0.00 0.00 40 1007.8
20260509140144 20 315 11.3 17.7 0.00 0.00 0.00 40 1007.8
20260509135942 20 315 12.9 17.7 0.00 0.00 0.00 40 1007.8
20260509135740 20 315 17.7 19.3 0.00 0.00 0.00 40 1007.7
20260509135335 20 315 9.7 19.3 0.00 0.00 0.00 40 1007.8
20260509135133 20 315 8.0 16.1 0.00 0.00 0.00 40 1007.8
20260509134526 21 315 14.5 17.7 0.00 0.00 0.00 39 1007.8
20260509134328 21 315 17.7 17.7 0.00 0.00 0.00 40 1007.8
20260509134124 21 315 14.5 20.9 0.00 0.00 0.00 39 1007.7
20260509133922 21 315 19.3 20.9 0.00 0.00 0.00 39 1007.7
20260509133517 21 315 12.9 24.1 0.00 0.00 0.00 39 1007.6
20260509133116 21 315 11.3 16.1 0.00 0.00 0.00 39 1007.7
20260509132912 21 315 11.3 12.9 0.00 0.00 0.00 39 1007.8
20260509131452 21 303 12.9 17.7 0.00 0.00 0.00 38 1007.8
20260509131250 21 292 17.7 17.7 0.00 0.00 0.00 38 1007.9
20260509125834 20 225 12.9 17.7 0.00 0.00 0.00 39 1008.1
20260509125632 20 0 14.5 14.5 0.00 0.00 0.00 39 1008.1
20260509124353 20 0 12.9 14.5 0.00 0.00 0.00 39 1008.4
20260509124014 20 0 12.9 14.5 0.00 0.00 0.00 39 1008.4
20260509123815 20 0 12.9 14.5 0.00 0.00 0.00 39 1008.3
20260509123615 20 225 11.3 16.1 0.00 0.00 0.00 40 1008.4
20260509122401 20 337 9.7 19.3 0.00 0.00 0.00 39 1008.3
20260509122159 20 0 16.1 19.3 0.00 0.00 0.00 39 1008.3
20260509121019 20 315 24.1 25.7 0.00 0.00 0.00 38 1008.3
20260509120818 20 315 24.1 25.7 0.00 0.00 0.00 39 1008.2
20260509115610 20 315 16.1 22.5 0.00 0.00 0.00 38 1008.4
20260509115001 20 315 17.7 17.7 0.00 0.00 0.00 38 1008.5
20260509114915 20 326 17.7 17.7 0.00 0.00 0.00 38 1008.4
20260509114911 20 326 17.7 17.7 0.00 0.00 0.00 38 1008.4
20260509114755 20 326 17.7 17.7 0.00 0.00 0.00 38 1008.4
20260509114156 20 315 17.7 22.5 0.00 0.00 0.00 37 1008.5
20260509113743 20 315 11.3 24.1 0.00 0.00 0.00 37 1008.5
20260509113544 20 315 19.3 22.5 0.00 0.00 0.00 37 1008.6
20260509112934 20 337 14.5 22.5 0.00 0.00 0.00 37 1008.7
20260509112532 20 315 11.3 17.7 0.00 0.00 0.00 38 1008.8
20260509112327 20 315 12.9 17.7 0.00 0.00 0.00 38 1008.9
20260509111923 20 315 14.5 17.7 0.00 0.00 0.00 38 1008.8
20260509111721 20 315 11.3 19.3 0.00 0.00 0.00 37 1008.8
20260509111610 20 326 19.3 20.9 0.00 0.00 0.00 36 1008.9
20260509111518 20 315 17.7 19.3 0.00 0.00 0.00 36 1008.8
20260509111316 20 326 19.3 20.9 0.00 0.00 0.00 36 1008.9
20260509110707 21 315 16.1 20.9 0.00 0.00 0.00 36 1009.2
20260509110449 21 315 17.7 17.7 0.00 0.00 0.00 36 1009.2
20260509110059 21 315 17.7 17.7 0.00 0.00 0.00 36 1009.2
20260509105703 21 315 9.7 16.1 0.00 0.00 0.00 35 1009.3
20260509105453 21 315 11.3 16.1 0.00 0.00 0.00 35 1009.3
20260509105048 21 315 9.7 16.1 0.00 0.00 0.00 35 1009.3
20260509104731 21 337 12.9 14.5 0.00 0.00 0.00 35 1009.2
20260509104644 21 337 12.9 14.5 0.00 0.00 0.00 35 1009.2
20260509104036 21 337 16.1 16.1 0.00 0.00 0.00 35 1009.2
20260509103632 21 315 12.9 14.5 0.00 0.00 0.00 35 1009.1
20260509103433 21 348 8.0 14.5 0.00 0.00 0.00 34 1009.2
20260509103232 21 315 11.3 14.5 0.00 0.00 0.00 34 1009.1
20260509102823 21 337 11.3 11.3 0.00 0.00 0.00 34 1009.1
20260509102422 21 348 8.0 17.7 0.00 0.00 0.00 33 1009.2
20260509101812 22 315 12.9 17.7 0.00 0.00 0.00 33 1009.1
20260509101636 22 315 11.3 14.5 0.00 0.00 0.00 32 1009.1
20260509101413 22 315 14.5 16.1 0.00 0.00 0.00 32 1009.2
20260509101002 22 315 11.3 14.5 0.00 0.00 0.00 32 1009.1
20260509100603 22 315 9.7 11.3 0.00 0.00 0.00 31 1009.2
20260509100556 22 315 9.7 12.9 0.00 0.00 0.00 32 1009.2
20260509100359 22 0 11.3 11.3 0.00 0.00 0.00 31 1009.2
20260509095951 22 315 9.7 12.9 0.00 0.00 0.00 32 1009.2
20260509095724 23 326 9.7 11.3 0.00 0.00 0.00 31 1009.2
20260509095547 23 326 9.7 11.3 0.00 0.00 0.00 31 1009.2
20260509094942 23 0 11.3 11.3 0.00 0.00 0.00 32 1009.4
20260509094738 22 315 4.8 11.3 0.00 0.00 0.00 32 1009.3
20260509094536 22 315 6.4 11.3 0.00 0.00 0.00 32 1009.3
20260509094130 22 326 8.0 11.3 0.00 0.00 0.00 32 1009.3
20260509093529 22 315 3.2 11.3 0.00 0.00 0.00 32 1009.4
20260509093322 22 315 8.0 11.3 0.00 0.00 0.00 32 1009.4
20260509092917 22 0 0.0 12.9 0.00 0.00 0.00 32 1009.3
20260509092716 22 337 4.8 12.9 0.00 0.00 0.00 32 1009.3
20260509091704 22 315 11.3 16.1 0.00 0.00 0.00 33 1009.1
20260509091502 22 315 16.1 16.1 0.00 0.00 0.00 33 1009.2
20260509091057 22 315 11.3 14.5 0.00 0.00 0.00 34 1009.3
20260509090248 22 337 11.3 11.3 0.00 0.00 0.00 35 1009.3
20260509090045 21 315 4.8 8.0 0.00 0.00 0.00 35 1009.2
20260509085439 21 315 3.2 4.8 0.00 0.00 0.00 35 1009.3
20260509083822 21 292 6.4 6.4 0.00 0.00 0.00 36 1009.2
20260509081032 20 315 6.4 9.7 0.00 0.00 0.00 38 1009.1
20260509080952 20 315 6.4 9.7 0.00 0.00 0.00 38 1009.1
20260509080544 20 292 6.4 9.7 0.00 0.00 0.00 38 1009.1
20260509080343 20 292 8.0 9.7 0.00 0.00 0.00 38 1009.1
20260509080004 19 292 3.2 202.8 0.00 0.00 0.00 40 1009.2
20260509075940 19 292 3.2 4.8 0.00 0.00 0.00 39 1009.1
20260509075537 19 292 3.2 202.8 0.00 0.00 0.00 40 1009.2
20260509075333 19 292 3.2 202.8 0.00 0.00 0.00 40 1009.0
20260509075231 19 292 202.8 202.8 0.00 0.00 0.00 41 1009.1
20260509074826 18 45 1.6 3.2 0.00 0.00 0.00 41 1009.1
20260509073812 18 292 1.6 1.6 0.00 0.00 0.00 41 1009.0
20260509073630 18 292 4.8 6.4 0.00 0.00 0.00 41 1009.1
20260509073426 18 292 4.8 6.4 0.00 0.00 0.00 41 1009.1
20260509073224 18 315 3.2 4.8 0.00 0.00 0.00 41 1009.1
20260509072417 18 337 0.0 1.6 0.00 0.00 0.00 42 1009.2
20260509072052 17 337 0.0 3.2 0.00 0.00 0.00 42 1009.2
20260509070511 17 326 197.9 197.9 0.00 0.00 0.00 44 1009.4
20260509070352 17 337 197.9 197.9 0.00 0.00 0.00 44 1009.5
20260509065746 17 292 0.0 1.6 0.00 0.00 0.00 44 1009.4
20260509064808 16 337 1.6 1.6 0.00 0.00 0.00 44 1009.5
20260509064359 16 292 0.0 0.0 0.00 0.00 0.00 43 1009.6
20260509064157 16 292 0.0 1.6 0.00 0.00 0.00 43 1009.5
20260509063959 16 292 0.0 1.6 0.00 0.00 0.00 43 1009.6
20260509063550 16 292 0.0 4.8 0.00 0.00 0.00 43 1009.5
20260509063353 15 292 3.2 4.8 0.00 0.00 0.00 43 1009.5
20260509062511 15 45 0.0 201.2 0.00 0.00 0.00 42 1009.5
20260509062309 15 247 3.2 201.2 0.00 0.00 0.00 42 1009.3
20260509062115 15 0 0.0 1.6 0.00 0.00 0.00 44 1009.4
20260509061758 15 45 0.0 1.6 0.00 0.00 0.00 44 1009.4
20260509061559 15 0 0.0 1.6 0.00 0.00 0.00 44 1009.4
20260509061352 15 0 0.0 3.2 0.00 0.00 0.00 44 1009.4
20260509061153 15 292 1.6 201.2 0.00 0.00 0.00 44 1009.3
20260509060722 15 326 0.0 4.8 0.00 0.00 0.00 42 1009.3
20260509060520 15 315 3.2 4.8 0.00 0.00 0.00 43 1009.3
20260509055918 15 315 3.2 4.8 0.00 0.00 0.00 41 1009.2
20260509055710 14 315 4.8 4.8 0.00 0.00 0.00 41 1009.2
20260509055509 14 292 4.8 4.8 0.00 0.00 0.00 41 1009.3